Location: Emblem
(62.4273°N, 6.4710°E)
Time: 06:33:23
(UTC+02:00)

Transit 2A - Pass Details

Date: 12 March 2024
Orbit: 596 x 956 km, 66.7° (Epoch: 24 April)

Event Time Altitude Azimuth Distance (km) Brightness Sun altitude
Rises 20:04:03 0° 269° (W) 2,872 10.6 -11.7°
Reaches altitude 10° 20:06:18 10° 275° (W) 1,992 9.6 -12.0°
Maximum altitude 20:10:40 52° 352° (N) 814 6.3 -12.5°
Enters shadow 20:15:10 11° 69° (ENE) 2,066 7.8 -13.0°
